Location: Unspecified
(0.0000°N, 0.0000°E)
Time: 22:30:40
(UTC+00:00)

Elektron 3 - Visible Passes

Search period start: 29 April 2025 00:00
Search period end: 09 May 2025 00:00
Orbit: 406 x 6077 km, 60.8° (Epoch: 27 April)

Date Brightness Start Highest point End Pass type
(mag) Time Alt. Az. Time Alt. Az. Time Alt. Az.
30 Apr 9.2 00:33:28 10° NNW 00:34:58 13° NNW 00:34:58 13° NNW visible
01 May 9.1 00:00:38 10° NNW 00:03:33 16° NNW 00:03:33 16° NNW visible
01 May 9.0 23:28:06 10° N 23:32:08 17° N 23:32:08 17° N visible
02 May 9.0 22:55:55 10° N 23:00:45 18° N 23:00:45 18° N visible
03 May 9.0 22:24:13 10° N 22:29:22 16° NNE 22:29:22 16° NNE visible
04 May 9.0 21:53:18 10° NNE 21:58:02 14° NNE 21:58:02 14° NNE visible
05 May 9.1 21:25:16 10° NNE 21:26:41 10° NE 21:26:41 10° NE visible
06 May 9.1 00:01:22 10° NNW 00:03:13 14° NNW 00:03:13 14° NNW visible
06 May 8.9 23:28:10 10° NNW 23:31:54 18° NNW 23:31:54 18° NNW visible
07 May 8.8 22:55:15 10° NNW 23:00:35 21° N 23:00:35 21° N visible
08 May 8.6 22:22:39 10° N 22:29:18 23° N 22:29:18 23° N visible
